Location: Paddlesworth
(51.1000°N, 1.1333°E)
Time: 20:33:27
(UTC+00:00)

Cosmos 1503 Rocket - Pass Details

Date: 11 May 2021
Orbit: 752 x 791 km, 74.0° (Epoch: 21 June)

Event Time Altitude Azimuth Distance (km) Brightness Sun altitude
Rises 20:43:39 0° 209° (SSW) 3,193 7.0 -9.5°
Reaches altitude 10° 20:46:00 10° 211° (SSW) 2,275 6.3 -9.7°
Maximum altitude 20:51:09 73° 296° (WNW) 797 4.3 -10.3°
Drops below altitude 10° 20:56:24 10° 22° (NNE) 2,310 6.8 -10.9°
Sets 20:58:48 0° 24° (NNE) 3,246 7.6 -11.1°
